Volk, WI

7:52 AM CDT on July 24, 2017 (GMT -0500)
Volk

Weather History for KVOK - November, 2011

Change the Weather History Date:

Wednesday, November 9, 2011

  Actual Average Record
Temperature  
Mean Temperature 36 °F -  
Max Temperature 39 °F 43 °F 69 °F (1999)
Min Temperature 32 °F 30 °F 17 °F (2007)
Degree Days  
Heating Degree Days 30    
Moisture  
Dew Point 35 °F    
Average Humidity 98    
Maximum Humidity 100    
Minimum Humidity 75    
Precipitation  
Precipitation 0.23 in - - ()
Snow  
Snow 0.00 in - - ()
Snow Depth 2.00 in    
Sea Level Pressure  
Sea Level Pressure 29.93 in    
Wind  
Wind Speed 10 mph (NNW)    
Max Wind Speed 21 mph    
Max Gust Speed 28 mph    
Visibility 7 miles    
Events Fog , Rain , Snow    
Averages and records for this station are not official NWS values.
T = Trace of Precipitation, MM = Missing Value Source: NWS Daily Summary

Daily Weather History Graph

Daily Weather History Graph

Search for Another Location

Airport or City:

Trip Planner

Search our weather history database for the weather conditions in past years. The results will help you decide how hot, cold, wet, or windy it might be!

Date:

Astronomy

Nov. 09, 2011 Rise Set
Actual Time 6:47 AM CST 4:41 PM CST
Civil Twilight 6:17 AM CST 5:12 PM CST
Nautical Twilight 5:42 AM CST 5:46 PM CST
Astronomical Twilight 5:08 AM CST 6:20 PM CST
Moon 3:53 PM CST (11/9) 5:43 AM CST (11/9)
Length of Visible Light 10h 55m
Length of Day
9h 53m
Waxing Gibbous, 99% of the Moon is Illuminated
Nov 9
Waxing Gibbous
Nov 10
Full
Nov 18
Last Quarter
Nov 25
New
Dec 2
First Quarter

Hourly Weather History & Observations

Time (CST) Temp. Windchill Dew Point Humidity Pressure Visibility Wind Dir Wind Speed Gust Speed Precip Events Conditions
12:38 AM 39.2 °F 35.9 °F 39.2 °F 100% 30.04 in 10.0 mi NNE 4.6 mph - N/A Rain Light Rain
12:44 AM 39.2 °F 35.0 °F 39.2 °F 100% 30.03 in 10.0 mi North 5.8 mph - N/A Rain Light Rain
12:52 AM 39.2 °F 35.9 °F 39.2 °F 100% 30.03 in 10.0 mi NNE 4.6 mph - N/A Rain Light Rain
12:53 AM 39.2 °F 35.0 °F 39.2 °F 100% 30.03 in 10.0 mi North 5.8 mph - N/A Rain Light Rain
12:55 AM 38.7 °F 34.3 °F 38.7 °F 100% 30.02 in 10.0 mi North 5.8 mph - 0.05 in Rain Light Rain
1:55 AM 38.5 °F 32.1 °F 38.5 °F 100% 30.01 in 10.0 mi North 9.2 mph - 0.02 in Rain Light Rain
2:21 AM 37.4 °F 30.3 °F 37.4 °F 100% 30.00 in 10.0 mi North 10.4 mph - N/A Rain Light Rain
2:55 AM 37.6 °F 30.0 °F 37.6 °F 100% 29.99 in 10.0 mi North 11.5 mph - 0.02 in Rain Light Rain
3:09 AM 37.4 °F 30.3 °F 37.4 °F 100% 29.97 in 10.0 mi North 10.4 mph 19.6 mph N/A Rain Light Rain
3:13 AM 37.4 °F 28.5 °F 37.4 °F 100% 29.97 in 10.0 mi North 15.0 mph 19.6 mph N/A Rain Light Rain
3:21 AM 37.4 °F 28.9 °F 37.4 °F 100% 29.96 in 10.0 mi North 13.8 mph 20.7 mph N/A Rain Light Rain
3:22 AM 37.4 °F 29.8 °F 37.4 °F 100% 29.97 in 10.0 mi North 11.5 mph 20.7 mph N/A Rain Light Rain
3:48 AM 37.4 °F 30.8 °F 37.4 °F 100% 29.95 in 10.0 mi North 9.2 mph 19.6 mph N/A Rain Light Rain
3:50 AM 37.4 °F 29.3 °F 37.4 °F 100% 29.95 in 10.0 mi North 12.7 mph 19.6 mph N/A Rain Light Rain
3:55 AM 36.7 °F 29.4 °F 36.7 °F 100% 29.95 in 10.0 mi NNE 10.4 mph - 0.01 in Rain Light Rain
4:26 AM 37.4 °F 29.3 °F 37.4 °F 100% 29.95 in 10.0 mi North 12.7 mph - N/A Rain Light Rain
4:36 AM 35.6 °F 27.5 °F 35.6 °F 100% 29.95 in 10.0 mi North 11.5 mph - N/A Rain Heavy Rain
4:39 AM 35.6 °F 29.2 °F 35.6 °F 100% 29.96 in 9.0 mi North 8.1 mph - N/A Rain Rain
4:41 AM 35.6 °F 28.6 °F 35.6 °F 100% 29.96 in 8.0 mi North 9.2 mph - N/A Rain Rain
4:48 AM 35.6 °F 29.9 °F 35.6 °F 100% 29.98 in 7.0 mi North 6.9 mph - N/A Rain Rain
4:55 AM 36.0 °F 29.6 °F 36.0 °F 100% 29.99 in 6.0 mi NNW 8.1 mph - 0.06 in Rain Rain
4:59 AM 35.6 °F 28.6 °F 35.6 °F 100% 29.98 in 7.0 mi NNW 9.2 mph - N/A Rain Rain
5:02 AM 35.6 °F 27.5 °F 35.6 °F 100% 29.97 in 7.0 mi North 11.5 mph - N/A Rain Rain
5:05 AM 35.6 °F 27.1 °F 35.6 °F 100% 29.96 in 7.0 mi North 12.7 mph - N/A Rain Rain
5:22 AM 35.6 °F 26.2 °F 35.6 °F 100% 29.92 in 10.0 mi North 15.0 mph 21.9 mph N/A   Overcast
5:26 AM 35.6 °F 28.6 °F 35.6 °F 100% 29.94 in 10.0 mi North 9.2 mph 21.9 mph N/A   Overcast
5:33 AM 35.6 °F 27.1 °F 35.6 °F 100% 29.93 in 10.0 mi North 12.7 mph - N/A   Overcast
5:38 AM 35.6 °F 27.1 °F 35.6 °F 100% 29.92 in 10.0 mi NNW 12.7 mph - N/A   Overcast
5:42 AM 33.8 °F 24.8 °F 33.8 °F 100% 29.92 in 8.0 mi NNW 12.7 mph - N/A Snow Light Snow
5:51 AM 33.8 °F 24.8 °F 33.8 °F 100% 29.91 in 4.0 mi NNW 12.7 mph - N/A Snow Light Snow
5:55 AM 32.9 °F 23.2 °F 32.9 °F 100% 29.91 in 3.0 mi NNW 13.8 mph - 0.07 in Snow Light Snow
5:56 AM 32.0 °F 22.1 °F 32.0 °F 100% 29.91 in 2.5 mi NNW 13.8 mph - N/A Snow Light Snow
6:00 AM 32.0 °F 22.1 °F 32.0 °F 100% 29.91 in 2.5 mi NNW 13.8 mph - N/A Snow Light Snow
6:07 AM 32.0 °F 22.5 °F 32.0 °F 100% 29.91 in 3.0 mi NNW 12.7 mph - N/A Snow Light Snow
6:24 AM 32.0 °F 22.1 °F 32.0 °F 100% 29.91 in 5.0 mi NNW 13.8 mph 20.7 mph N/A Snow Light Snow
6:32 AM 32.0 °F 22.1 °F 32.0 °F 100% 29.90 in 5.0 mi NNW 13.8 mph - N/A Snow Light Snow
6:40 AM 33.8 °F 23.2 °F 33.8 °F 100% 29.90 in 3.0 mi NNW 17.3 mph - N/A Snow Light Snow
6:55 AM 33.8 °F 24.3 °F 33.8 °F 100% 29.90 in 0.8 mi NNW 13.8 mph - N/A Snow Light Snow
7:55 AM 33.8 °F 22.2 °F 33.8 °F 100% 29.88 in 0.8 mi NNW 20.7 mph 26.5 mph N/A Snow Light Snow
8:55 AM 32.0 °F 22.1 °F 32.0 °F 100% 29.89 in 0.2 mi NNW 13.8 mph - N/A Fog , Snow Snow
9:55 AM 32.0 °F 24.2 °F 32.0 °F 100% 29.85 in 0.2 mi NNW 9.2 mph 27.6 mph N/A Fog , Snow Snow
10:55 AM 33.8 °F 22.8 °F 33.8 °F 100% 29.83 in 0.5 mi NNW 18.4 mph 23.0 mph N/A Snow Snow
11:55 AM 33.8 °F 23.5 °F 33.8 °F 100% 29.89 in 0.5 mi NNW 16.1 mph 25.3 mph N/A Snow Snow
12:55 PM 33.8 °F 23.5 °F 33.8 °F 100% 29.83 in 1.2 mi NW 16.1 mph - N/A Snow Light Snow
1:55 PM 33.8 °F 23.2 °F 33.8 °F 100% 29.85 in 3.0 mi NW 17.3 mph - N/A Snow Light Snow
2:36 PM 33.8 °F 24.8 °F 33.8 °F 100% 29.82 in 10.0 mi WNW 12.7 mph - N/A   Mostly Cloudy
2:55 PM 33.8 °F 23.9 °F 33.8 °F 100% 29.86 in 10.0 mi WNW 15.0 mph - N/A   Mostly Cloudy
3:25 PM 35.6 °F 27.1 °F 35.6 °F 100% 29.84 in 10.0 mi WNW 12.7 mph - N/A   Overcast
3:55 PM 35.6 °F 27.1 °F 35.6 °F 100% 29.88 in 10.0 mi WNW 12.7 mph - N/A   Mostly Cloudy
4:55 PM 35.6 °F 28.0 °F 35.6 °F 100% 29.89 in 10.0 mi WNW 10.4 mph - N/A   Mostly Cloudy
5:55 PM 33.8 °F 26.4 °F 33.8 °F 100% 29.91 in 10.0 mi West 9.2 mph - N/A   Scattered Clouds
6:55 PM 33.8 °F 27.0 °F 32.0 °F 93% 29.91 in 10.0 mi WNW 8.1 mph - N/A   Partly Cloudy
7:55 PM 33.8 °F 27.7 °F 30.2 °F 87% 29.91 in 10.0 mi West 6.9 mph - N/A   Partly Cloudy
8:55 PM 37.4 °F 28.9 °F 30.2 °F 75% 29.91 in 10.0 mi West 13.8 mph - N/A   Overcast
9:55 PM 35.6 °F 26.6 °F 30.2 °F 81% 29.92 in 10.0 mi West 13.8 mph - N/A   Partly Cloudy
10:55 PM 33.8 °F 22.8 °F 26.6 °F 75% 29.92 in 10.0 mi West 18.4 mph - N/A   Partly Cloudy
11:55 PM 33.8 °F 24.8 °F 26.6 °F 75% 29.91 in 10.0 mi West 12.7 mph - N/A   Partly Cloudy